Time,TemperatureF,DewpointF,PressureIn,WindDirection,WindDirectionDegrees,WindSpeedMPH,WindSpeedGustMPH,Humidity,HourlyPrecipIn,Conditions,Clouds,dailyrainin,SoftwareType,DateUTC
2013-01-19 00:02:00,32.7,16.1,30.40,SW,233,7.6,8.3,50,0.00,,,0.00,WUHU21623XXSP,2013-01-19 05:02:00,
2013-01-19 00:04:00,32.7,16.1,30.40,SW,233,7.6,8.3,50,0.00,,,0.00,WUHU21623XXSP,2013-01-19 05:04:00,
2013-01-19 00:06:00,32.7,16.1,30.40,SW,233,3.6,8.3,50,0.00,,,0.00,WUHU21623XXSP,2013-01-19 05:06:00,
2013-01-19 00:12:00,32.7,16.1,30.40,SW,233,6.7,10.3,50,0.00,,,0.00,WUHU21623XXSP,2013-01-19 05:12:00,
2013-01-19 00:19:00,32.7,16.1,30.40,WSW,256,3.8,6.9,50,0.00,,,0.00,WUHU21623XXSP,2013-01-19 05:19:00,
2013-01-19 00:25:00,32.7,16.1,30.39,SSE,166,15.7,15.7,50,0.00,,,0.00,WUHU21623XXSP,2013-01-19 05:25:00,
2013-01-19 00:32:00,32.7,16.1,30.38,West,278,4.7,15.7,50,0.00,,,0.00,WUHU21623XXSP,2013-01-19 05:32:00,
2013-01-19 00:38:00,32.7,16.1,30.39,WSW,256,7.6,8.3,50,0.00,,,0.00,WUHU21623XXSP,2013-01-19 05:38:00,
2013-01-19 00:44:00,32.7,16.1,30.39,SSW,211,7.6,7.6,50,0.00,,,0.00,WUHU21623XXSP,2013-01-19 05:44:00,
2013-01-19 00:51:00,32.9,16.3,30.39,SW,219,8.1,10.3,50,0.00,,,0.00,WUHU21623XXSP,2013-01-19 05:51:00,
2013-01-19 00:57:00,32.9,16.3,30.39,WSW,256,5.6,10.3,50,0.00,,,0.00,WUHU21623XXSP,2013-01-19 05:57:00,
2013-01-19 01:04:00,33.1,16.4,30.38,SW,233,10.5,10.5,50,0.00,,,0.00,WUHU21623XXSP,2013-01-19 06:04:00,
2013-01-19 01:10:00,33.1,16.8,30.38,SSW,211,6.0,10.5,51,0.00,,,0.00,WUHU21623XXSP,2013-01-19 06:10:00,
2013-01-19 01:16:00,33.4,17.0,30.38,SW,233,7.2,7.4,51,0.00,,,0.00,WUHU21623XXSP,2013-01-19 06:16:00,
2013-01-19 01:23:00,33.4,17.2,30.39,SW,233,4.9,7.2,51,0.00,,,0.00,WUHU21623XXSP,2013-01-19 06:23:00,
2013-01-19 01:29:00,33.6,17.3,30.39,SW,233,4.9,7.4,51,0.00,,,0.00,WUHU21623XXSP,2013-01-19 06:29:00,
2013-01-19 01:36:00,33.6,17.3,30.39,WSW,256,4.7,7.4,51,0.00,,,0.00,WUHU21623XXSP,2013-01-19 06:36:00,
2013-01-19 01:42:00,33.6,16.9,30.39,SW,233,7.4,20.6,50,0.00,,,0.00,WUHU21623XXSP,2013-01-19 06:42:00,
2013-01-19 01:49:00,33.6,17.3,30.39,SW,233,9.2,9.2,51,0.00,,,0.00,WUHU21623XXSP,2013-01-19 06:49:00,
2013-01-19 01:55:00,33.6,16.9,30.38,SW,233,13.6,13.6,50,0.00,,,0.00,WUHU21623XXSP,2013-01-19 06:55:00,
2013-01-19 02:02:00,33.6,16.9,30.38,West,278,10.7,13.6,50,0.00,,,0.00,WUHU21623XXSP,2013-01-19 07:02:00,
2013-01-19 02:08:00,33.6,16.9,30.38,WNW,301,15.2,15.2,50,0.00,,,0.00,WUHU21623XXSP,2013-01-19 07:08:00,
2013-01-19 02:14:00,33.6,17.3,30.38,SW,233,8.1,16.6,51,0.00,,,0.00,WUHU21623XXSP,2013-01-19 07:14:00,
2013-01-19 02:21:00,33.6,17.3,30.38,SW,226,12.4,16.6,51,0.00,,,0.00,WUHU21623XXSP,2013-01-19 07:21:00,
2013-01-19 02:27:00,33.6,17.3,30.38,SW,233,9.2,16.6,51,0.00,,,0.00,WUHU21623XXSP,2013-01-19 07:27:00,
2013-01-19 02:34:00,33.6,17.8,30.37,SW,233,6.9,11.4,52,0.00,,,0.00,WUHU21623XXSP,2013-01-19 07:34:00,
2013-01-19 02:40:00,33.8,17.9,30.37,WSW,256,8.9,10.3,52,0.00,,,0.00,WUHU21623XXSP,2013-01-19 07:40:00,
2013-01-19 02:47:00,34.0,18.1,30.37,SW,233,9.6,10.5,52,0.00,,,0.00,WUHU21623XXSP,2013-01-19 07:47:00,
2013-01-19 02:53:00,34.0,18.5,30.37,SW,233,11.2,11.2,53,0.00,,,0.00,WUHU21623XXSP,2013-01-19 07:53:00,
2013-01-19 02:59:00,34.0,18.5,30.36,WSW,256,9.2,11.2,53,0.00,,,0.00,WUHU21623XXSP,2013-01-19 07:59:00,
2013-01-19 03:06:00,34.2,18.7,30.36,SSW,211,12.1,12.1,53,0.00,,,0.00,WUHU21623XXSP,2013-01-19 08:06:00,
2013-01-19 03:12:00,34.2,18.7,30.36,SSW,211,9.2,16.3,53,0.00,,,0.00,WUHU21623XXSP,2013-01-19 08:12:00,
2013-01-19 03:19:00,34.2,18.7,30.36,WSW,256,7.6,16.3,53,0.00,,,0.00,WUHU21623XXSP,2013-01-19 08:19:00,
2013-01-19 03:25:00,34.3,19.3,30.35,SSW,211,7.2,7.6,54,0.00,,,0.00,WUHU21623XXSP,2013-01-19 08:25:00,
2013-01-19 03:31:00,34.3,19.3,30.35,SW,221,4.7,7.2,54,0.00,,,0.00,WUHU21623XXSP,2013-01-19 08:31:00,
2013-01-19 03:38:00,34.3,19.8,30.34,SW,233,8.5,9.2,55,0.00,,,0.00,WUHU21623XXSP,2013-01-19 08:38:00,
2013-01-19 03:45:00,34.3,19.8,30.34,SW,233,15.0,15.0,55,0.00,,,0.00,WUHU21623XXSP,2013-01-19 08:45:00,
2013-01-19 03:51:00,34.3,19.8,30.33,South,188,3.8,15.0,55,0.00,,,0.00,WUHU21623XXSP,2013-01-19 08:51:00,
2013-01-19 03:57:00,34.3,19.8,30.33,SW,233,13.9,13.9,55,0.00,,,0.00,WUHU21623XXSP,2013-01-19 08:57:00,
2013-01-19 04:04:00,34.5,19.9,30.33,WSW,256,9.2,15.7,55,0.00,,,0.00,WUHU21623XXSP,2013-01-19 09:04:00,
2013-01-19 04:10:00,34.7,19.7,30.32,WSW,256,8.1,15.7,54,0.00,,,0.00,WUHU21623XXSP,2013-01-19 09:10:00,
2013-01-19 04:17:00,34.9,19.9,30.33,SSW,211,5.6,17.2,54,0.00,,,0.00,WUHU21623XXSP,2013-01-19 09:17:00,
2013-01-19 04:23:00,34.9,19.9,30.33,SW,233,4.7,16.8,54,0.00,,,0.00,WUHU21623XXSP,2013-01-19 09:23:00,
2013-01-19 04:30:00,34.9,19.9,30.32,WSW,256,6.3,16.6,54,0.00,,,0.00,WUHU21623XXSP,2013-01-19 09:30:00,
2013-01-19 04:36:00,35.2,20.2,30.32,SW,233,13.4,16.8,54,0.00,,,0.00,WUHU21623XXSP,2013-01-19 09:36:00,
2013-01-19 04:42:00,35.2,19.8,30.32,WSW,256,10.5,16.8,53,0.00,,,0.00,WUHU21623XXSP,2013-01-19 09:42:00,
2013-01-19 04:49:00,35.2,19.8,30.32,SW,233,8.1,15.2,53,0.00,,,0.00,WUHU21623XXSP,2013-01-19 09:49:00,
2013-01-19 04:55:00,35.4,20.0,30.31,SSW,211,5.6,14.5,53,0.00,,,0.00,WUHU21623XXSP,2013-01-19 09:55:00,
2013-01-19 05:03:00,35.4,20.0,30.31,SSW,211,5.6,5.6,53,0.00,,,0.00,WUHU21623XXSP,2013-01-19 10:03:00,
2013-01-19 05:10:00,35.8,20.8,30.31,WSW,256,4.5,16.3,54,0.00,,,0.00,WUHU21623XXSP,2013-01-19 10:10:00,
2013-01-19 05:16:00,35.8,20.8,30.31,WSW,256,9.8,9.8,54,0.00,,,0.00,WUHU21623XXSP,2013-01-19 10:16:00,
2013-01-19 05:21:00,35.8,20.8,30.31,WSW,256,11.4,23.0,54,0.00,,,0.00,WUHU21623XXSP,2013-01-19 10:21:00,
2013-01-19 05:28:00,36.0,20.9,30.31,SW,233,12.8,23.0,54,0.00,,,0.00,WUHU21623XXSP,2013-01-19 10:28:00,
2013-01-19 05:34:00,36.0,20.9,30.31,SSE,166,8.9,15.9,54,0.00,,,0.00,WUHU21623XXSP,2013-01-19 10:34:00,
2013-01-19 05:41:00,36.0,21.3,30.31,SSW,211,7.4,15.4,55,0.00,,,0.00,WUHU21623XXSP,2013-01-19 10:41:00,
2013-01-19 05:46:00,36.0,21.3,30.30,SW,233,15.7,15.7,55,0.00,,,0.00,WUHU21623XXSP,2013-01-19 10:46:00,
2013-01-19 05:52:00,36.0,21.3,30.31,SSE,166,3.4,15.7,55,0.00,,,0.00,WUHU21623XXSP,2013-01-19 10:52:00,
2013-01-19 05:58:00,36.0,21.8,30.31,SW,233,12.3,14.1,56,0.00,,,0.00,WUHU21623XXSP,2013-01-19 10:58:00,
2013-01-19 06:04:00,36.0,21.8,30.30,South,188,9.6,21.7,56,0.00,,,0.00,WUHU21623XXSP,2013-01-19 11:04:00,
2013-01-19 06:11:00,36.0,21.8,30.30,South,188,9.2,22.8,56,0.00,,,0.00,WUHU21623XXSP,2013-01-19 11:11:00,
2013-01-19 07:48:00,36.3,24.2,30.29,WSW,256,3.8,15.0,61,0.00,,,0.00,WUHU21623XXSP,2013-01-19 12:48:00,
2013-01-19 07:52:00,36.5,24.2,30.29,West,278,6.7,15.0,61,0.00,,,0.00,WUHU21623XXSP,2013-01-19 12:52:00,
2013-01-19 07:54:00,36.5,24.4,30.29,West,278,6.7,6.7,61,0.00,,,0.00,WUHU21623XXSP,2013-01-19 12:54:00,
2013-01-19 08:01:00,36.7,24.9,30.29,South,188,11.6,11.6,62,0.00,,,0.00,WUHU21623XXSP,2013-01-19 13:01:00,
2013-01-19 08:07:00,36.9,25.1,30.28,SSW,211,13.0,13.0,62,0.00,,,0.00,WUHU21623XXSP,2013-01-19 13:07:00,
2013-01-19 08:14:00,37.0,25.2,30.28,WSW,256,9.8,13.0,62,0.00,,,0.00,WUHU21623XXSP,2013-01-19 13:14:00,
2013-01-19 08:20:00,37.2,25.4,30.28,SW,233,17.2,17.2,62,0.00,,,0.00,WUHU21623XXSP,2013-01-19 13:20:00,
2013-01-19 08:27:00,37.2,25.4,30.29,WSW,256,7.2,17.2,62,0.00,,,0.00,WUHU21623XXSP,2013-01-19 13:27:00,
2013-01-19 08:33:00,37.6,25.7,30.29,WNW,301,6.3,17.2,62,0.00,,,0.00,WUHU21623XXSP,2013-01-19 13:33:00,
2013-01-19 08:39:00,37.8,25.9,30.28,SW,233,13.4,14.1,62,0.00,,,0.00,WUHU21623XXSP,2013-01-19 13:39:00,
2013-01-19 08:46:00,37.9,26.0,30.28,WSW,256,16.8,16.8,62,0.00,,,0.00,WUHU21623XXSP,2013-01-19 13:46:00,
2013-01-19 08:52:00,38.1,26.2,30.28,West,278,10.7,16.8,62,0.00,,,0.00,WUHU21623XXSP,2013-01-19 13:52:00,
2013-01-19 08:59:00,38.1,26.4,30.28,West,266,7.6,10.7,62,0.00,,,0.00,WUHU21623XXSP,2013-01-19 13:59:00,
2013-01-19 09:05:00,38.5,26.5,30.29,South,188,5.4,8.5,62,0.00,,,0.00,WUHU21623XXSP,2013-01-19 14:05:00,
2013-01-19 09:12:00,38.5,26.5,30.29,SSW,211,6.5,18.1,62,0.00,,,0.00,WUHU21623XXSP,2013-01-19 14:12:00,
2013-01-19 09:18:00,38.8,26.9,30.29,South,188,3.8,6.5,62,0.00,,,0.00,WUHU21623XXSP,2013-01-19 14:18:00,
2013-01-19 09:25:00,39.4,27.4,30.28,SW,233,8.7,10.5,62,0.00,,,0.00,WUHU21623XXSP,2013-01-19 14:25:00,
2013-01-19 09:31:00,39.9,27.5,30.28,SSW,211,4.5,10.5,61,0.00,,,0.00,WUHU21623XXSP,2013-01-19 14:31:00,
2013-01-19 09:38:00,40.1,27.7,30.28,SW,233,10.7,11.2,61,0.00,,,0.00,WUHU21623XXSP,2013-01-19 14:38:00,
2013-01-19 09:44:00,40.6,28.2,30.28,SSE,166,6.5,10.7,61,0.00,,,0.00,WUHU21623XXSP,2013-01-19 14:44:00,
2013-01-19 09:51:00,41.0,28.6,30.27,WSW,256,5.4,15.0,61,0.00,,,0.00,WUHU21623XXSP,2013-01-19 14:51:00,
2013-01-19 09:57:00,41.5,29.1,30.27,SSW,211,10.1,15.0,61,0.00,,,0.00,WUHU21623XXSP,2013-01-19 14:57:00,
2013-01-19 10:03:00,41.7,28.9,30.27,SW,221,9.9,15.0,60,0.00,,,0.00,WUHU21623XXSP,2013-01-19 15:03:00,
2013-01-19 10:10:00,42.6,29.2,30.26,West,278,6.9,10.7,59,0.00,,,0.00,WUHU21623XXSP,2013-01-19 15:10:00,
2013-01-19 10:16:00,43.2,29.8,30.25,SW,233,13.9,17.7,59,0.00,,,0.00,WUHU21623XXSP,2013-01-19 15:16:00,
2013-01-19 10:23:00,43.9,29.9,30.25,SW,233,8.3,13.9,58,0.00,,,0.00,WUHU21623XXSP,2013-01-19 15:23:00,
2013-01-19 10:29:00,44.4,30.1,30.25,SSW,199,18.5,19.5,57,0.00,,,0.00,WUHU21623XXSP,2013-01-19 15:29:00,
2013-01-19 10:36:00,45.1,30.3,30.24,South,188,15.0,23.9,56,0.00,,,0.00,WUHU21623XXSP,2013-01-19 15:36:00,
2013-01-19 10:43:00,45.3,30.0,30.23,South,188,12.3,15.4,55,0.00,,,0.00,WUHU21623XXSP,2013-01-19 15:43:00,
2013-01-19 10:49:00,45.3,30.0,30.22,South,188,14.5,15.4,55,0.00,,,0.00,WUHU21623XXSP,2013-01-19 15:49:00,
2013-01-19 10:56:00,46.0,30.2,30.23,WSW,247,6.6,14.5,54,0.00,,,0.00,WUHU21623XXSP,2013-01-19 15:56:00,
2013-01-19 11:02:00,46.2,30.4,30.22,WSW,256,10.3,10.3,54,0.00,,,0.00,WUHU21623XXSP,2013-01-19 16:02:00,
2013-01-19 11:09:00,46.2,30.4,30.22,SSW,211,6.5,10.3,54,0.00,,,0.00,WUHU21623XXSP,2013-01-19 16:09:00,
2013-01-19 11:15:00,46.6,30.3,30.20,SW,233,14.1,14.1,53,0.00,,,0.00,WUHU21623XXSP,2013-01-19 16:15:00,
2013-01-19 11:21:00,46.2,30.3,30.20,WSW,256,8.3,14.1,52,0.00,,,0.00,WUHU21623XXSP,2013-01-19 16:21:00,
2013-01-19 11:28:00,46.2,29.5,30.19,SW,233,10.5,13.4,52,0.00,,,0.00,WUHU21623XXSP,2013-01-19 16:28:00,
2013-01-19 11:34:00,46.2,29.9,30.18,SW,233,8.9,13.4,53,0.00,,,0.00,WUHU21623XXSP,2013-01-19 16:34:00,
2013-01-19 11:41:00,46.2,29.5,30.18,SW,233,15.0,15.0,52,0.00,,,0.00,WUHU21623XXSP,2013-01-19 16:41:00,
2013-01-19 11:48:00,46.2,29.5,30.17,SSW,211,10.5,24.4,52,0.00,,,0.00,WUHU21623XXSP,2013-01-19 16:48:00,
2013-01-19 11:54:00,46.2,29.7,30.17,SW,233,11.2,24.4,52,0.00,,,0.00,WUHU21623XXSP,2013-01-19 16:54:00,
2013-01-19 12:00:00,46.2,29.9,30.16,WSW,256,11.9,11.9,53,0.00,,,0.00,WUHU21623XXSP,2013-01-19 17:00:00,
2013-01-19 12:07:00,46.6,29.8,30.15,SSW,211,16.3,16.3,52,0.00,,,0.00,WUHU21623XXSP,2013-01-19 17:07:00,
2013-01-19 12:14:00,46.8,30.0,30.15,SW,233,7.4,16.3,52,0.00,,,0.00,WUHU21623XXSP,2013-01-19 17:14:00,
2013-01-19 12:21:00,46.9,30.1,30.14,SSW,211,9.8,9.8,52,0.00,,,0.00,WUHU21623XXSP,2013-01-19 17:21:00,
2013-01-19 12:27:00,47.1,29.9,30.14,WSW,256,5.1,9.8,51,0.00,,,0.00,WUHU21623XXSP,2013-01-19 17:27:00,
2013-01-19 12:34:00,47.1,29.9,30.13,WSW,256,6.5,9.2,51,0.00,,,0.00,WUHU21623XXSP,2013-01-19 17:34:00,
2013-01-19 12:40:00,47.5,30.2,30.13,SSW,211,15.7,15.7,51,0.00,,,0.00,WUHU21623XXSP,2013-01-19 17:40:00,
2013-01-19 12:47:00,47.5,30.6,30.13,WSW,256,3.6,15.7,52,0.00,,,0.00,WUHU21623XXSP,2013-01-19 17:47:00,
2013-01-19 12:53:00,47.7,30.8,30.12,West,278,3.8,7.4,52,0.00,,,0.00,WUHU21623XXSP,2013-01-19 17:53:00,
2013-01-19 12:59:00,47.8,31.0,30.12,SW,233,11.5,14.8,52,0.00,,,0.00,WUHU21623XXSP,2013-01-19 17:59:00,
2013-01-19 13:06:00,48.0,30.7,30.12,SW,233,13.0,17.4,51,0.00,,,0.00,WUHU21623XXSP,2013-01-19 18:06:00,
2013-01-19 13:12:00,48.2,30.8,30.11,SSW,211,20.1,21.3,51,0.00,,,0.00,WUHU21623XXSP,2013-01-19 18:12:00,
2013-01-19 13:19:00,48.4,31.0,30.11,South,188,13.6,21.3,51,0.00,,,0.00,WUHU21623XXSP,2013-01-19 18:19:00,
2013-01-19 13:25:00,48.6,31.2,30.10,West,278,10.5,13.6,51,0.00,,,0.00,WUHU21623XXSP,2013-01-19 18:25:00,
2013-01-19 13:31:00,48.7,30.9,30.10,West,278,8.9,10.5,50,0.00,,,0.00,WUHU21623XXSP,2013-01-19 18:31:00,
2013-01-19 13:40:00,48.9,31.1,30.09,WSW,256,7.4,12.1,50,0.00,,,0.00,WUHU21623XXSP,2013-01-19 18:40:00,
2013-01-19 13:46:00,49.1,31.3,30.09,SSW,211,20.1,20.1,50,0.00,,,0.00,WUHU21623XXSP,2013-01-19 18:46:00,
2013-01-19 13:53:00,49.3,31.5,30.09,SSW,211,7.4,20.1,50,0.00,,,0.00,WUHU21623XXSP,2013-01-19 18:53:00,
2013-01-19 14:00:00,49.6,31.8,30.09,SW,233,6.9,7.4,50,0.00,,,0.00,WUHU21623XXSP,2013-01-19 19:00:00,
2013-01-19 14:06:00,49.6,31.8,30.08,WSW,256,7.4,7.4,50,0.00,,,0.00,WUHU21623XXSP,2013-01-19 19:06:00,
2013-01-19 14:12:00,49.8,32.0,30.07,West,278,6.7,11.0,49,0.00,,,0.00,WUHU21623XXSP,2013-01-19 19:12:00,
2013-01-19 14:19:00,49.8,31.4,30.08,WSW,256,8.5,8.5,49,0.00,,,0.00,WUHU21623XXSP,2013-01-19 19:19:00,
2013-01-19 14:25:00,49.8,31.4,30.08,SSE,166,7.8,8.5,49,0.00,,,0.00,WUHU21623XXSP,2013-01-19 19:25:00,
2013-01-19 14:31:00,49.8,31.4,30.07,SW,233,13.2,13.2,49,0.00,,,0.00,WUHU21623XXSP,2013-01-19 19:31:00,
2013-01-19 14:38:00,50.2,31.8,30.07,West,278,3.6,13.2,49,0.00,,,0.00,WUHU21623XXSP,2013-01-19 19:38:00,
2013-01-19 14:44:00,50.2,31.8,30.07,SSW,211,9.2,11.2,49,0.00,,,0.00,WUHU21623XXSP,2013-01-19 19:44:00,
2013-01-19 14:51:00,50.5,32.7,30.07,SW,233,5.4,11.4,50,0.00,,,0.00,WUHU21623XXSP,2013-01-19 19:51:00,
2013-01-19 14:58:00,50.7,32.8,30.07,WSW,256,7.4,11.4,50,0.00,,,0.00,WUHU21623XXSP,2013-01-19 19:58:00,
2013-01-19 15:04:00,50.7,32.8,30.07,WSW,256,3.4,7.4,50,0.00,,,0.00,WUHU21623XXSP,2013-01-19 20:04:00,
2013-01-19 15:10:00,51.1,33.2,30.07,SW,233,5.6,9.8,50,0.00,,,0.00,WUHU21623XXSP,2013-01-19 20:10:00,
2013-01-19 15:16:00,51.1,32.6,30.06,WSW,256,7.8,9.8,49,0.00,,,0.00,WUHU21623XXSP,2013-01-19 20:16:00,
2013-01-19 15:23:00,51.1,32.6,30.06,WSW,243,5.7,7.8,49,0.00,,,0.00,WUHU21623XXSP,2013-01-19 20:23:00,
2013-01-19 15:30:00,51.3,33.3,30.06,SW,233,2.9,6.3,50,0.00,,,0.00,WUHU21623XXSP,2013-01-19 20:30:00,
2013-01-19 15:38:00,51.4,33.5,30.05,WSW,256,5.1,5.1,50,0.00,,,0.00,WUHU21623XXSP,2013-01-19 20:38:00,
2013-01-19 15:45:00,52.0,33.4,30.05,WSW,256,3.1,5.1,49,0.00,,,0.00,WUHU21623XXSP,2013-01-19 20:45:00,
2013-01-19 15:53:00,52.3,34.3,30.05,SW,233,8.3,8.3,50,0.00,,,0.00,WUHU21623XXSP,2013-01-19 20:53:00,
2013-01-19 16:00:00,52.7,34.1,30.05,SSW,211,6.7,10.3,49,0.00,,,0.00,WUHU21623XXSP,2013-01-19 21:00:00,
2013-01-19 16:08:00,52.9,34.8,30.05,SSW,211,8.3,8.3,50,0.00,,,0.00,WUHU21623XXSP,2013-01-19 21:08:00,
2013-01-19 16:14:00,52.9,35.2,30.04,South,188,8.1,8.3,51,0.00,,,0.00,WUHU21623XXSP,2013-01-19 21:14:00,
2013-01-19 16:23:00,52.5,35.3,30.04,SSW,211,4.0,10.3,52,0.00,,,0.00,WUHU21623XXSP,2013-01-19 21:23:00,
2013-01-19 16:32:00,52.0,35.8,30.04,South,188,4.5,8.5,54,0.00,,,0.00,WUHU21623XXSP,2013-01-19 21:32:00,
2013-01-19 16:38:00,51.8,35.7,30.04,SW,233,6.9,7.8,55,0.00,,,0.00,WUHU21623XXSP,2013-01-19 21:38:00,
2013-01-19 16:47:00,51.1,35.9,30.04,South,188,3.8,6.9,56,0.00,,,0.00,WUHU21623XXSP,2013-01-19 21:47:00,
2013-01-19 16:52:00,50.5,35.4,30.04,South,188,3.1,8.9,56,0.00,,,0.00,WUHU21623XXSP,2013-01-19 21:52:00,
2013-01-19 16:57:00,50.4,35.7,30.04,South,188,4.0,8.9,58,0.00,,,0.00,WUHU21623XXSP,2013-01-19 21:57:00,
2013-01-19 17:06:00,49.8,35.6,30.03,South,188,2.5,7.8,59,0.00,,,0.00,WUHU21623XXSP,2013-01-19 22:06:00,
2013-01-19 17:13:00,49.5,36.2,30.03,South,188,5.6,5.6,60,0.00,,,0.00,WUHU21623XXSP,2013-01-19 22:13:00,
2013-01-19 17:23:00,49.1,36.2,30.03,WSW,256,3.6,8.7,61,0.00,,,0.00,WUHU21623XXSP,2013-01-19 22:23:00,
2013-01-19 17:30:00,48.7,35.9,30.03,SSW,211,5.4,6.7,61,0.00,,,0.00,WUHU21623XXSP,2013-01-19 22:30:00,
2013-01-19 17:39:00,48.7,36.3,30.03,SW,233,7.4,7.4,62,0.00,,,0.00,WUHU21623XXSP,2013-01-19 22:39:00,
2013-01-19 17:45:00,48.6,36.5,30.03,South,188,9.6,9.6,63,0.00,,,0.00,WUHU21623XXSP,2013-01-19 22:45:00,
2013-01-19 17:51:00,48.0,36.2,30.03,South,188,12.8,12.8,63,0.00,,,0.00,WUHU21623XXSP,2013-01-19 22:51:00,
2013-01-19 17:58:00,48.0,36.4,30.03,SW,233,4.0,12.8,64,0.00,,,0.00,WUHU21623XXSP,2013-01-19 22:58:00,
2013-01-19 18:06:00,47.7,36.6,30.02,SSW,211,8.9,8.9,65,0.00,,,0.00,WUHU21623XXSP,2013-01-19 23:06:00,
2013-01-19 18:13:00,47.5,36.8,30.03,SW,233,5.1,8.9,66,0.00,,,0.00,WUHU21623XXSP,2013-01-19 23:13:00,
2013-01-19 18:19:00,47.5,36.6,30.03,SW,233,4.5,8.3,66,0.00,,,0.00,WUHU21623XXSP,2013-01-19 23:19:00,
2013-01-19 18:26:00,47.3,36.6,30.03,SW,233,7.8,7.8,66,0.00,,,0.00,WUHU21623XXSP,2013-01-19 23:26:00,
2013-01-19 18:33:00,47.3,36.5,30.03,SSW,211,4.0,7.8,66,0.00,,,0.00,WUHU21623XXSP,2013-01-19 23:33:00,
2013-01-19 18:39:00,47.3,36.5,30.02,WSW,256,8.3,8.3,66,0.00,,,0.00,WUHU21623XXSP,2013-01-19 23:39:00,
2013-01-19 18:45:00,47.1,36.3,30.02,South,188,11.9,11.9,66,0.00,,,0.00,WUHU21623XXSP,2013-01-19 23:45:00,
2013-01-19 18:52:00,46.9,36.1,30.03,SW,233,11.2,11.9,66,0.00,,,0.00,WUHU21623XXSP,2013-01-19 23:52:00,
2013-01-19 18:58:00,46.9,36.1,30.02,SSW,211,3.6,11.2,66,0.00,,,0.00,WUHU21623XXSP,2013-01-19 23:58:00,
2013-01-19 19:04:00,46.9,36.1,30.02,SW,233,10.1,10.1,66,0.00,,,0.00,WUHU21623XXSP,2013-01-20 00:04:00,
2013-01-19 19:15:00,46.8,36.0,30.02,SW,233,5.4,5.4,66,0.00,,,0.00,WUHU21623XXSP,2013-01-20 00:15:00,
2013-01-19 19:22:00,46.8,36.0,30.02,SSE,166,5.8,13.0,66,0.00,,,0.00,WUHU21623XXSP,2013-01-20 00:22:00,
2013-01-19 19:28:00,46.8,36.0,30.02,South,188,9.6,9.6,66,0.00,,,0.00,WUHU21623XXSP,2013-01-20 00:28:00,
2013-01-19 19:34:00,46.6,35.8,30.02,WSW,256,5.1,9.6,66,0.00,,,0.00,WUHU21623XXSP,2013-01-20 00:34:00,
2013-01-19 19:40:00,46.6,35.8,30.02,SSW,211,18.6,18.6,65,0.00,,,0.00,WUHU21623XXSP,2013-01-20 00:40:00,
2013-01-19 19:47:00,46.6,35.0,30.02,SSW,211,8.5,18.6,64,0.00,,,0.00,WUHU21623XXSP,2013-01-20 00:47:00,
2013-01-19 19:54:00,46.6,35.0,30.01,SW,233,6.0,8.7,64,0.00,,,0.00,WUHU21623XXSP,2013-01-20 00:54:00,
2013-01-19 20:02:00,46.6,34.6,30.00,SW,233,9.6,10.3,63,0.00,,,0.00,WUHU21623XXSP,2013-01-20 01:02:00,
2013-01-19 20:09:00,46.4,34.4,30.00,SSW,211,2.7,10.3,63,0.00,,,0.00,WUHU21623XXSP,2013-01-20 01:09:00,
2013-01-19 20:15:00,46.4,34.2,30.00,SSW,211,11.9,11.9,62,0.00,,,0.00,WUHU21623XXSP,2013-01-20 01:15:00,
2013-01-19 20:22:00,46.4,34.1,30.00,SSW,211,10.1,11.9,62,0.00,,,0.00,WUHU21623XXSP,2013-01-20 01:22:00,
2013-01-19 20:28:00,46.4,33.7,29.99,SSW,211,9.2,10.1,61,0.00,,,0.00,WUHU21623XXSP,2013-01-20 01:28:00,
2013-01-19 20:34:00,46.2,33.5,29.99,SSW,211,17.9,17.9,61,0.00,,,0.00,WUHU21623XXSP,2013-01-20 01:34:00,
2013-01-19 20:43:00,46.2,33.9,29.99,SW,233,11.0,17.9,62,0.00,,,0.00,WUHU21623XXSP,2013-01-20 01:43:00,
2013-01-19 20:50:00,46.2,33.5,29.99,SSW,211,8.1,11.0,61,0.00,,,0.00,WUHU21623XXSP,2013-01-20 01:50:00,
2013-01-19 20:58:00,46.2,33.5,29.99,WSW,256,7.2,12.3,61,0.00,,,0.00,WUHU21623XXSP,2013-01-20 01:58:00,
2013-01-19 21:04:00,46.2,32.6,29.99,SW,233,11.9,13.4,59,0.00,,,0.00,WUHU21623XXSP,2013-01-20 02:04:00,
2013-01-19 21:13:00,46.2,32.2,29.99,SW,233,4.9,16.3,58,0.00,,,0.00,WUHU21623XXSP,2013-01-20 02:13:00,
2013-01-19 21:19:00,46.0,31.6,29.99,SSE,166,12.1,16.3,57,0.00,,,0.00,WUHU21623XXSP,2013-01-20 02:19:00,
2013-01-19 21:28:00,46.0,31.1,29.98,SW,233,15.9,15.9,56,0.00,,,0.00,WUHU21623XXSP,2013-01-20 02:28:00,
2013-01-19 21:34:00,46.0,31.6,29.98,SW,233,5.1,15.9,57,0.00,,,0.00,WUHU21623XXSP,2013-01-20 02:34:00,
2013-01-19 21:41:00,46.0,31.6,29.98,SSW,211,5.8,9.2,57,0.00,,,0.00,WUHU21623XXSP,2013-01-20 02:41:00,
2013-01-19 21:47:00,46.0,32.0,29.97,SW,233,5.8,8.1,58,0.00,,,0.00,WUHU21623XXSP,2013-01-20 02:47:00,
2013-01-19 21:54:00,46.0,32.0,29.97,SW,233,6.5,11.0,58,0.00,,,0.00,WUHU21623XXSP,2013-01-20 02:54:00,
2013-01-19 22:00:00,46.0,32.0,29.97,SW,233,5.6,17.0,58,0.00,,,0.00,WUHU21623XXSP,2013-01-20 03:00:00,
2013-01-19 22:07:00,45.7,31.7,29.97,SSW,211,13.0,17.0,58,0.00,,,0.00,WUHU21623XXSP,2013-01-20 03:07:00,
2013-01-19 22:13:00,45.7,31.7,29.97,SSW,211,16.1,16.1,58,0.00,,,0.00,WUHU21623XXSP,2013-01-20 03:13:00,
2013-01-19 22:19:00,45.7,31.7,29.97,SSW,211,12.1,16.1,58,0.00,,,0.00,WUHU21623XXSP,2013-01-20 03:19:00,
2013-01-19 22:26:00,45.7,31.7,29.97,SW,233,9.2,12.1,58,0.00,,,0.00,WUHU21623XXSP,2013-01-20 03:26:00,
2013-01-19 22:32:00,45.7,31.7,29.97,SW,233,7.4,11.4,58,0.00,,,0.00,WUHU21623XXSP,2013-01-20 03:32:00,
2013-01-19 22:39:00,45.5,32.0,29.96,SSW,211,5.8,8.1,59,0.00,,,0.00,WUHU21623XXSP,2013-01-20 03:39:00,
2013-01-19 22:45:00,45.5,32.0,29.95,South,188,10.7,10.7,59,0.00,,,0.00,WUHU21623XXSP,2013-01-20 03:45:00,
2013-01-19 22:51:00,45.5,32.0,29.95,WSW,256,5.4,10.7,59,0.00,,,0.00,WUHU21623XXSP,2013-01-20 03:51:00,
2013-01-19 22:58:00,45.5,32.0,29.95,WSW,256,6.9,8.9,59,0.00,,,0.00,WUHU21623XXSP,2013-01-20 03:58:00,
2013-01-19 23:04:00,45.5,32.0,29.94,SSW,211,6.3,8.9,59,0.00,,,0.00,WUHU21623XXSP,2013-01-20 04:04:00,
2013-01-19 23:11:00,45.3,31.4,29.94,SW,233,4.7,6.9,58,0.00,,,0.00,WUHU21623XXSP,2013-01-20 04:11:00,
2013-01-19 23:17:00,45.3,31.4,29.94,WSW,256,8.3,11.2,58,0.00,,,0.00,WUHU21623XXSP,2013-01-20 04:17:00,
2013-01-19 23:24:00,45.3,31.4,29.93,SSW,211,10.3,10.3,58,0.00,,,0.00,WUHU21623XXSP,2013-01-20 04:24:00,
2013-01-19 23:30:00,45.1,31.2,29.93,WSW,256,4.0,10.3,58,0.00,,,0.00,WUHU21623XXSP,2013-01-20 04:30:00,
2013-01-19 23:36:00,45.1,31.2,29.93,South,188,11.0,11.0,58,0.00,,,0.00,WUHU21623XXSP,2013-01-20 04:36:00,
2013-01-19 23:43:00,45.1,31.2,29.92,WSW,256,8.7,11.0,58,0.00,,,0.00,WUHU21623XXSP,2013-01-20 04:43:00,
2013-01-19 23:49:00,45.1,31.2,29.92,SSW,211,8.7,8.7,58,0.00,,,0.00,WUHU21623XXSP,2013-01-20 04:49:00,
2013-01-19 23:58:00,45.1,31.2,29.92,SSW,211,12.1,12.1,58,0.00,,,0.00,WUHU21623XXSP,2013-01-20 04:58:00,